Farmville, Virginia, United States (23901)
Lat: 37.30N, Lon: 78.39W
Wx Zone: VAZ060
Local Info
Past Weather Observations for Today

NOTE: This archive is for the closest National Weather Service station to Farmville. Information may differ from the station used for current weather conditions.

Click here for Long-term Archive

Time Weather Temperature Dewpoint Humidity Pressure Winds Precip Visibility
16:15
Overcast
Thunder Storms
70°F / 21°C 70°F / 21°C 100% 29.89 in
(1012 mb)
NE 8.1 mph
(NE 13 kph)
0.24 in
(6.10 mm)
10SM
15:55
Overcast
Thunder Storms
70°F / 21°C 70°F / 21°C 100% 29.92 in
(1013 mb)
NNW 3.5 mph
(NNW 6 kph)
0.09 in
(2.29 mm)
3SM
15:35
Overcast
Thunder Storms
70°F / 21°C 70°F / 21°C 100% 29.89 in
(1012 mb)
NNE 11.5 mph
(NNE 19 kph)
0.01 in
(0.25 mm)
7SM
15:15
Overcast
Thunder Storms
75°F / 24°C 66°F / 19°C 74% 29.86 in
(1011 mb)
NNE 15 mph
(NNE 24 kph)
- 10SM
14:55
Overcast
Thunder Storms
86°F / 30°C 66°F / 19°C 52% 29.83 in
(1010 mb)
Calm - 10SM
14:35
Overcast
84°F / 29°C 66°F / 19°C 55% 29.83 in
(1010 mb)
S 6.9 mph
(S 11 kph)
- 10SM
14:15
Overcast
86°F / 30°C 66°F / 19°C 52% 29.86 in
(1011 mb)
SE 3.5 mph
(SE 6 kph)
- 10SM
13:55
Mostly Cloudy
84°F / 29°C 68°F / 20°C 58% 29.86 in
(1011 mb)
E 3.5 mph
(E 6 kph)
- 10SM
13:35
Mostly Cloudy
84°F / 29°C 66°F / 19°C 55% 29.86 in
(1011 mb)
SSE 6.9 mph
(SSE 11 kph)
- 10SM
13:15
Clear
86°F / 30°C 70°F / 21°C 59% 29.86 in
(1011 mb)
E 5.8 mph
(E 9 kph)
- 10SM
12:55
Partly Cloudy
84°F / 29°C 68°F / 20°C 58% 29.89 in
(1012 mb)
SE 4.6 mph
(SE 7 kph)
- 10SM
12:35
Mostly Cloudy
81°F / 27°C 68°F / 20°C 66% 29.89 in
(1012 mb)
NE 5.8 mph
(NE 9 kph)
- 10SM
12:15
Mostly Cloudy
82°F / 28°C 68°F / 20°C 62% 29.89 in
(1012 mb)
Calm - 10SM
11:55
Partly Cloudy
81°F / 27°C 68°F / 20°C 66% 29.89 in
(1012 mb)
Calm - 10SM
11:35
Mostly Cloudy
81°F / 27°C 70°F / 21°C 70% 29.89 in
(1012 mb)
Calm - 10SM
11:15
Overcast
79°F / 26°C 70°F / 21°C 74% 29.92 in
(1013 mb)
NE 4.6 mph
(NE 7 kph)
- 10SM
10:55
Mostly Cloudy
79°F / 26°C 70°F / 21°C 74% 29.92 in
(1013 mb)
Calm - 10SM
10:35
Mostly Cloudy
79°F / 26°C 73°F / 23°C 84% 29.92 in
(1013 mb)
ESE 3.5 mph
(ESE 6 kph)
- 10SM
10:15
Mostly Cloudy
79°F / 26°C 73°F / 23°C 84% 29.92 in
(1013 mb)
E 5.8 mph
(E 9 kph)
- 10SM
09:55
Partly Cloudy
79°F / 26°C 73°F / 23°C 84% 29.92 in
(1013 mb)
Calm - 10SM
09:15
Mostly Cloudy
75°F / 24°C 73°F / 23°C 94% 29.92 in
(1013 mb)
N 6.9 mph
(N 11 kph)
- 7SM
08:35
Partly Cloudy
75°F / 24°C 73°F / 23°C 94% 29.92 in
(1013 mb)
NE 3.5 mph
(NE 6 kph)
0.01 in
(0.25 mm)
10SM
08:15
Partly Cloudy
73°F / 23°C 72°F / 22°C 94% 29.92 in
(1013 mb)
Calm 0.01 in
(0.25 mm)
10SM
07:55
Partly Cloudy
72°F / 22°C 72°F / 22°C 100% 29.92 in
(1013 mb)
Calm 0.01 in
(0.25 mm)
7SM
07:35
Partly Cloudy
Fog And Mist
72°F / 22°C 70°F / 21°C 94% 29.92 in
(1013 mb)
S 5.8 mph
(S 9 kph)
- 5SM
07:15
Partly Cloudy
Fog And Mist
72°F / 22°C 70°F / 21°C 94% 29.92 in
(1013 mb)
SSE 3.5 mph
(SSE 6 kph)
- 2 1/2SM
06:55
Partly Cloudy
Light Rain
72°F / 22°C 70°F / 21°C 94% 29.92 in
(1013 mb)
Calm - 3SM
06:35
Overcast
Rain
72°F / 22°C 70°F / 21°C 94% 29.92 in
(1013 mb)
Calm 0.21 in
(5.33 mm)
4SM
06:15
Overcast
Rain
70°F / 21°C 70°F / 21°C 100% 29.92 in
(1013 mb)
Calm 0.13 in
(3.30 mm)
2SM
05:55
Overcast
Rain
70°F / 21°C 70°F / 21°C 100% 29.89 in
(1012 mb)
Calm 0.05 in
(1.27 mm)
3SM
05:35
Overcast
Rain
72°F / 22°C 70°F / 21°C 94% 29.92 in
(1013 mb)
Calm 0.19 in
(4.83 mm)
5SM
05:15
Overcast
Rain
72°F / 22°C 72°F / 22°C 100% 29.89 in
(1012 mb)
N 4.6 mph
(N 7 kph)
0.14 in
(3.56 mm)
7SM
04:55
Overcast
Heavy Rain
72°F / 22°C 72°F / 22°C 100% 29.89 in
(1012 mb)
NNW 3.5 mph
(NNW 6 kph)
0.03 in
(0.76 mm)
5SM
04:35
Overcast
Light Rain
73°F / 23°C 70°F / 21°C 89% 29.89 in
(1012 mb)
NW 3.5 mph
(NW 6 kph)
- 10SM
04:15
Overcast
73°F / 23°C 68°F / 20°C 83% 29.86 in
(1011 mb)
NE 3.5 mph
(NE 6 kph)
- 10SM
03:55
Overcast
73°F / 23°C 66°F / 19°C 78% 29.86 in
(1011 mb)
NNE 8.1 mph
(NNE 13 kph)
- 10SM
03:35
Mostly Cloudy
Drizzle
75°F / 24°C 66°F / 19°C 74% 29.86 in
(1011 mb)
N 5.8 mph
(N 9 kph)
- 10SM
03:15
Partly Cloudy
75°F / 24°C 70°F / 21°C 83% 29.86 in
(1011 mb)
NW 3.5 mph
(NW 6 kph)
- 10SM
02:55
Overcast
75°F / 24°C 73°F / 23°C 94% 29.89 in
(1012 mb)
NNW 3.5 mph
(NNW 6 kph)
- 10SM
02:35
Overcast
75°F / 24°C 73°F / 23°C 94% 29.86 in
(1011 mb)
SSW 3.5 mph
(SSW 6 kph)
- 10SM
02:15
Mostly Cloudy
75°F / 24°C 70°F / 21°C 83% 29.86 in
(1011 mb)
Calm - 10SM
01:55
Partly Cloudy
75°F / 24°C 70°F / 21°C 83% 29.86 in
(1011 mb)
Calm - 10SM
01:35
Mostly Cloudy
75°F / 24°C 70°F / 21°C 83% 29.86 in
(1011 mb)
Calm - 10SM
01:15
Mostly Cloudy
75°F / 24°C 70°F / 21°C 83% N/A Calm - 10SM
00:35
Clear
77°F / 25°C 70°F / 21°C 79% 29.89 in
(1012 mb)
Calm - 10SM
00:15
Clear
77°F / 25°C 70°F / 21°C 79% 29.89 in
(1012 mb)
Calm - 10SM
Time Weather Temperature Dewpoint Humidity Pressure Winds Precip Visibility


Weather for websites

WeatherForYou.com, LLC is not responsible for any damages or problems caused by this service. Current weather conditions are obtained from the closest station including government and personal stations which may have varying degrees of accuracy. Weather forecasts are derived from the NOAA NDFD. Like all things, this site belongs to Jesus Christ... He just trusts me to maintain it. If you have any questions or comments email webmaster@weatherforyou.com

Copyright © 2014, WeatherForYou.com LLC. All rights reserved.